Flag for U.S.A. Weather past 2 weeks in Bentonville, Arkansas, U.S.A.

Now
45 °F

Clear.


Feels Like: 42 °F
Forecast: 42 / 68 °F
Wind: 5 mph from Northeast

Location: Bentonville Weather Observing Station


UV Index: 5 (Moderate)

Visibility: 10 mi


Pressure: 30.25 "Hg

Humidity: 76%

Dew point: 37 °F

Location of BentonvilleLocation

Historic Weather in Bentonville

°F

Bentonville temperature yesterday

Maximum temperature yesterday: 66 °F (at 3:15 PM)
Minimum temperature yesterday: 39 °F (at 3:35 AM)
Average temperature yesterday: 53 °F

Past Weeks' High & Low Weather Summary

 TemperatureHumidityPressure
High81 °F (Apr 3, 3:35 PM)88% (Apr 13, 7:55 PM)30.26 "Hg (Apr 13, 7:55 PM)
Low27 °F (Apr 15, 5:35 AM)24% (Apr 9, 2:35 PM)29.54 "Hg (Apr 13, 4:55 PM)
Average54 °F59%29.97 "Hg
* Reported Apr 3 5:15 AM — Apr 18 5:35 AM, Bentonville, Weather by CustomWeather, © 2014

Note: Actual official high and low records may vary slightly from our data, if they occured in-between our weather recording intervals... More about our weather records

Advertising

Historic Weather Conditions — Data for Previous 24 hours

 ConditionsComfort  
Time TempWeatherWind HumidityBarometerVisibility
5:35 AM
Apr 18
46 °FPassing clouds.6 mph76%30.24 "Hg10 mi
5:15 AM46 °FPassing clouds.6 mph76%30.25 "Hg10 mi
4:55 AM46 °FPassing clouds.6 mph76%30.24 "Hg10 mi
4:35 AM48 °FPassing clouds.6 mph71%30.24 "Hg10 mi
4:15 AM48 °FOvercast.3 mph71%30.24 "Hg10 mi
3:55 AM50 °FOvercast.No wind67%30.24 "Hg10 mi
3:35 AM50 °FOvercast.5 mph67%30.24 "Hg10 mi
3:15 AM50 °FOvercast.3 mph67%30.23 "Hg10 mi
2:55 AM50 °FOvercast.No wind67%30.24 "Hg10 mi
2:35 AM50 °FOvercast.5 mph67%30.24 "Hg10 mi
2:15 AM52 °FPassing clouds.5 mph62%30.24 "Hg10 mi
1:55 AM52 °FPassing clouds.3 mph62%30.24 "Hg10 mi
1:35 AM52 °FPassing clouds.7 mph62%30.24 "Hg10 mi
1:15 AM52 °FOvercast.7 mph62%30.25 "Hg10 mi
12:55 AM52 °FOvercast.8 mph62%30.26 "Hg10 mi
12:35 AM52 °FOvercast.7 mph62%30.25 "Hg10 mi
12:15 AM52 °FOvercast.7 mph62%30.25 "Hg10 mi
11:55 PM
Apr 17
52 °FOvercast.7 mph62%30.26 "Hg10 mi
11:35 PM52 °FPassing clouds.6 mph62%30.25 "Hg10 mi
11:15 PM54 °FPassing clouds.3 mph58%30.25 "Hg10 mi
10:55 PM54 °FPassing clouds.6 mph58%30.24 "Hg10 mi
10:35 PM55 °FOvercast.6 mph55%30.24 "Hg10 mi
10:15 PM55 °FOvercast.5 mph55%30.24 "Hg10 mi
9:55 PM55 °FOvercast.6 mph55%30.23 "Hg10 mi
9:35 PM55 °FOvercast.6 mph55%30.23 "Hg10 mi
9:15 PM55 °FOvercast.7 mph55%30.23 "Hg10 mi
8:55 PM57 °FPassing clouds.7 mph51%30.23 "Hg10 mi
8:35 PM57 °FScattered clouds.8 mph51%30.23 "Hg10 mi
8:15 PM57 °FPartly sunny.10 mph51%30.22 "Hg10 mi
7:55 PM57 °FPartly sunny.14 mph48%30.22 "Hg10 mi
7:35 PM59 °FPartly sunny.12 mph48%30.22 "Hg10 mi
7:15 PM59 °FPassing clouds.15 mph48%30.22 "Hg10 mi
6:55 PM61 °FSunny.10 mph45%30.22 "Hg10 mi
6:35 PM63 °FSunny.10 mph39%30.20 "Hg10 mi
6:15 PM63 °FSunny.9 mph39%30.20 "Hg10 mi
5:55 PM63 °FSunny.8 mph39%30.19 "Hg10 mi
5:35 PM64 °FPassing clouds.8 mph37%30.19 "Hg10 mi
5:15 PM64 °FPartly sunny.12 mph37%30.20 "Hg10 mi
4:55 PM64 °FScattered clouds.No wind34%30.20 "Hg10 mi
4:35 PM64 °FPassing clouds.5 mph32%30.19 "Hg10 mi
4:15 PM64 °FPartly sunny.7 mph34%30.20 "Hg10 mi
3:55 PM66 °FSunny.6 mph30%30.21 "Hg10 mi
3:35 PM66 °FSunny.3 mph32%30.21 "Hg10 mi
3:15 PM66 °FSunny.No wind32%30.21 "Hg10 mi
2:55 PM64 °FSunny.5 mph34%30.21 "Hg10 mi
2:35 PM64 °FSunny.5 mph34%30.21 "Hg10 mi
2:15 PM63 °FSunny.No wind37%30.22 "Hg10 mi
1:55 PM63 °FSunny.No wind37%30.22 "Hg10 mi
1:35 PM63 °FScattered clouds.3 mph39%30.23 "Hg10 mi
1:15 PM63 °FPassing clouds.3 mph37%30.23 "Hg10 mi
12:55 PM63 °FPassing clouds.No wind37%30.24 "Hg10 mi
11:55 AM61 °FSunny.5 mph39%30.25 "Hg10 mi
11:35 AM61 °FSunny.5 mph39%30.25 "Hg10 mi
10:55 AM59 °FSunny.6 mph42%30.25 "Hg10 mi
10:35 AM57 °FSunny.5 mph44%30.25 "Hg10 mi
10:15 AM57 °FSunny.7 mph44%30.24 "Hg10 mi
9:55 AM55 °FSunny.5 mph47%30.24 "Hg10 mi
9:35 AM54 °FSunny.6 mph51%30.24 "Hg10 mi
9:15 AM54 °FSunny.3 mph51%30.23 "Hg10 mi
8:55 AM52 °FSunny.5 mph54%30.23 "Hg10 mi
8:35 AM48 °FSunny.3 mph62%30.22 "Hg10 mi
8:15 AM46 °FSunny.5 mph66%30.21 "Hg10 mi
7:55 AM45 °FSunny.3 mph71%30.20 "Hg10 mi
7:35 AM43 °FClear.3 mph71%30.19 "Hg10 mi
7:15 AM41 °FClear.3 mph66%30.18 "Hg10 mi
6:55 AM39 °FClear.No wind70%30.18 "Hg10 mi
6:35 AM39 °FClear.No wind70%30.17 "Hg10 mi
6:15 AM39 °FClear.3 mph70%30.16 "Hg10 mi
Weather by CustomWeather, © 2014

See weather overview